KAZSAT-3

Last updated on Wed Sep 17 2025 00:02:48 GMT+0000 (Coordinated Universal Time)

1 39728U 14023B 25259.59534539 .00000041 00000+0 00000+0 0 9998 2 39728 0.0282 52.4565 0000543 259.0568 317.1156 1.00269541 39719
UTC large
Height (km)
Speed (km/s)
/
Latitude / Longitude
Inclination (degrees)
Orbital Period (minutes)
Azimuth
Elevation
Range (km)
Doppler Factor

Next 0 passes for location: London (51.5072 / 0.1276)

Sorry there are no passes over London.